Time,TemperatureF,DewpointF,PressureIn,WindDirection,WindDirectionDegrees,WindSpeedMPH,WindSpeedGustMPH,Humidity,HourlyPrecipIn,Conditions,Clouds,dailyrainin,SoftwareType,DateUTC
2013-02-03 00:02:00,38.0,29.0,-100.00,NW,315,15.0,20.0,67,0.00,,,-99.99,,2013-02-03 06:02:00,
2013-02-03 00:11:00,38.0,28.0,-100.00,NW,320,14.0,20.0,67,0.00,,,-99.99,,2013-02-03 06:11:00,
2013-02-03 00:21:00,39.0,28.0,-100.00,NW,325,21.0,30.0,65,0.00,,,-99.99,,2013-02-03 06:21:00,
2013-02-03 00:32:00,37.0,27.0,-100.00,NNW,335,18.0,25.0,66,0.00,,,-99.99,,2013-02-03 06:32:00,
2013-02-03 00:41:00,37.0,27.0,-100.00,NNW,335,18.0,25.0,66,0.00,,,-99.99,,2013-02-03 06:41:00,
2013-02-03 00:52:00,37.0,27.0,-100.00,NNW,340,15.0,26.0,67,0.00,,,-99.99,,2013-02-03 06:52:00,
2013-02-03 01:01:00,37.0,27.0,-100.00,NNW,340,15.0,26.0,67,0.00,,,-99.99,,2013-02-03 07:01:00,
2013-02-03 01:11:00,37.0,28.0,-100.00,NNW,345,16.0,21.0,69,0.00,,,-99.99,,2013-02-03 07:11:00,
2013-02-03 01:21:00,36.0,27.0,-100.00,NNW,345,15.0,21.0,68,0.00,,,-99.99,,2013-02-03 07:21:00,
2013-02-03 01:31:00,36.0,26.0,-100.00,NNW,335,19.0,25.0,67,0.00,,,-99.99,,2013-02-03 07:31:00,
2013-02-03 01:41:00,36.0,26.0,-100.00,NNW,335,19.0,25.0,67,0.00,,,-99.99,,2013-02-03 07:41:00,
2013-02-03 01:52:00,35.0,25.0,-100.00,NNW,340,19.0,23.0,67,0.00,,,-99.99,,2013-02-03 07:52:00,
2013-02-03 02:01:00,35.0,25.0,-100.00,NNW,340,19.0,23.0,67,0.00,,,-99.99,,2013-02-03 08:01:00,
2013-02-03 02:11:00,35.0,25.0,-100.00,North,0,14.0,22.0,67,0.00,,,-99.99,,2013-02-03 08:11:00,
2013-02-03 02:22:00,34.0,25.0,-100.00,NNW,345,16.0,20.0,68,0.00,,,-99.99,,2013-02-03 08:22:00,
2013-02-03 02:32:00,33.0,24.0,-100.00,NNW,345,11.0,15.0,71,0.00,,,-99.99,,2013-02-03 08:32:00,
2013-02-03 02:41:00,33.0,24.0,-100.00,NNW,345,11.0,15.0,71,0.00,,,-99.99,,2013-02-03 08:41:00,
2013-02-03 02:52:00,32.0,24.0,-100.00,North,0,16.0,24.0,72,0.00,,,-99.99,,2013-02-03 08:52:00,
2013-02-03 03:02:00,32.0,24.0,-100.00,North,0,16.0,24.0,72,0.00,,,-99.99,,2013-02-03 09:02:00,
2013-02-03 03:11:00,33.0,24.0,-100.00,North,0,19.0,26.0,69,0.00,,,-99.99,,2013-02-03 09:11:00,
2013-02-03 03:21:00,32.0,23.0,-100.00,North,350,12.0,20.0,69,0.00,,,-99.99,,2013-02-03 09:21:00,
2013-02-03 03:31:00,31.0,23.0,-100.00,NNW,335,14.0,19.0,70,0.00,,,-99.99,,2013-02-03 09:31:00,
2013-02-03 03:41:00,31.0,23.0,-100.00,NNW,335,14.0,19.0,70,0.00,,,-99.99,,2013-02-03 09:41:00,
2013-02-03 03:51:00,31.0,22.0,-100.00,NNW,335,17.0,21.0,69,0.00,,,-99.99,,2013-02-03 09:51:00,
2013-02-03 04:01:00,31.0,22.0,-100.00,NNW,335,17.0,21.0,69,0.00,,,-99.99,,2013-02-03 10:01:00,
2013-02-03 04:11:00,31.0,22.0,-100.00,NNW,340,16.0,22.0,67,0.00,,,-99.99,,2013-02-03 10:11:00,
2013-02-03 04:21:00,31.0,21.0,-100.00,NNW,345,17.0,22.0,67,0.00,,,-99.99,,2013-02-03 10:21:00,
2013-02-03 04:31:00,30.0,20.0,-100.00,North,350,16.0,20.0,66,0.00,,,-99.99,,2013-02-03 10:31:00,
2013-02-03 04:42:00,30.0,20.0,-100.00,North,350,16.0,20.0,66,0.00,,,-99.99,,2013-02-03 10:42:00,
2013-02-03 04:52:00,30.0,20.0,-100.00,North,0,15.0,22.0,65,0.00,,,-99.99,,2013-02-03 10:52:00,
2013-02-03 05:02:00,30.0,20.0,-100.00,North,0,15.0,22.0,65,0.00,,,-99.99,,2013-02-03 11:02:00,
2013-02-03 05:11:00,29.0,19.0,-100.00,North,0,13.0,19.0,65,0.00,,,-99.99,,2013-02-03 11:11:00,
2013-02-03 05:22:00,29.0,19.0,-100.00,North,350,11.0,18.0,66,0.00,,,-99.99,,2013-02-03 11:22:00,
2013-02-03 05:32:00,28.0,19.0,-100.00,NNW,340,13.0,19.0,67,0.00,,,-99.99,,2013-02-03 11:32:00,
2013-02-03 05:41:00,28.0,19.0,-100.00,NNW,340,13.0,19.0,67,0.00,,,-99.99,,2013-02-03 11:41:00,
2013-02-03 05:52:00,27.0,18.0,-100.00,North,5,9.0,15.0,67,0.00,,,-99.99,,2013-02-03 11:52:00,
2013-02-03 06:02:00,27.0,18.0,-100.00,North,5,9.0,15.0,67,0.00,,,-99.99,,2013-02-03 12:02:00,
2013-02-03 06:11:00,26.0,18.0,-100.00,NNE,25,7.0,11.0,69,0.00,,,-99.99,,2013-02-03 12:11:00,
2013-02-03 06:22:00,26.0,18.0,-100.00,NNE,15,9.0,14.0,69,0.00,,,-99.99,,2013-02-03 12:22:00,
2013-02-03 06:32:00,26.0,17.0,-100.00,North,355,6.0,9.0,69,0.00,,,-99.99,,2013-02-03 12:32:00,
2013-02-03 06:42:00,26.0,17.0,-100.00,North,355,6.0,9.0,69,0.00,,,-99.99,,2013-02-03 12:42:00,
2013-02-03 06:52:00,25.0,17.0,-100.00,North,0,7.0,9.0,69,0.00,,,-99.99,,2013-02-03 12:52:00,
2013-02-03 07:03:00,25.0,17.0,-100.00,North,0,7.0,9.0,69,0.00,,,-99.99,,2013-02-03 13:03:00,
2013-02-03 07:11:00,24.0,16.0,-100.00,NNW,335,7.0,9.0,69,0.00,,,-99.99,,2013-02-03 13:11:00,
2013-02-03 07:21:00,24.0,16.0,-100.00,NNW,340,7.0,9.0,70,0.00,,,-99.99,,2013-02-03 13:21:00,
2013-02-03 07:32:00,24.0,17.0,-100.00,NW,320,5.0,7.0,71,0.00,,,-99.99,,2013-02-03 13:32:00,
2013-02-03 07:42:00,24.0,17.0,-100.00,NW,320,5.0,7.0,71,0.00,,,-99.99,,2013-02-03 13:42:00,
2013-02-03 07:52:00,25.0,17.0,-100.00,NNW,330,5.0,6.0,71,0.00,,,-99.99,,2013-02-03 13:52:00,
2013-02-03 08:02:00,25.0,17.0,-100.00,NNW,330,5.0,6.0,71,0.00,,,-99.99,,2013-02-03 14:02:00,
2013-02-03 08:11:00,25.0,17.0,-100.00,NW,325,6.0,6.0,70,0.00,,,-99.99,,2013-02-03 14:11:00,
2013-02-03 08:21:00,25.0,17.0,-100.00,WNW,300,6.0,7.0,70,0.00,,,-99.99,,2013-02-03 14:21:00,
2013-02-03 08:32:00,26.0,17.0,-100.00,NW,310,5.0,6.0,69,0.00,,,-99.99,,2013-02-03 14:32:00,
2013-02-03 08:42:00,26.0,17.0,-100.00,NW,310,5.0,6.0,69,0.00,,,-99.99,,2013-02-03 14:42:00,
2013-02-03 08:52:00,27.0,17.0,-100.00,WNW,295,6.0,7.0,66,0.00,,,-99.99,,2013-02-03 14:52:00,
2013-02-03 09:03:00,27.0,17.0,-100.00,WNW,295,6.0,7.0,66,0.00,,,-99.99,,2013-02-03 15:03:00,
2013-02-03 09:11:00,28.0,17.0,-100.00,NW,310,5.0,7.0,64,0.00,,,-99.99,,2013-02-03 15:11:00,
2013-02-03 09:22:00,28.0,18.0,-100.00,WNW,285,4.0,7.0,64,0.00,,,-99.99,,2013-02-03 15:22:00,
2013-02-03 09:32:00,29.0,18.0,-100.00,WNW,300,6.0,8.0,60,0.00,,,-99.99,,2013-02-03 15:32:00,
2013-02-03 09:41:00,29.0,18.0,-100.00,WNW,300,6.0,8.0,60,0.00,,,-99.99,,2013-02-03 15:41:00,
2013-02-03 09:51:00,31.0,18.0,-100.00,NW,305,4.0,6.0,57,0.00,,,-99.99,,2013-02-03 15:51:00,
2013-02-03 10:02:00,31.0,18.0,-100.00,NW,305,4.0,6.0,57,0.00,,,-99.99,,2013-02-03 16:02:00,
2013-02-03 10:11:00,31.0,17.0,-100.00,NW,310,2.0,5.0,55,0.00,,,-99.99,,2013-02-03 16:11:00,
2013-02-03 10:22:00,32.0,18.0,-100.00,West,275,4.0,7.0,54,0.00,,,-99.99,,2013-02-03 16:22:00,
2013-02-03 10:32:00,32.0,18.0,-100.00,WSW,255,5.0,7.0,54,0.00,,,-99.99,,2013-02-03 16:32:00,
2013-02-03 10:41:00,32.0,18.0,-100.00,WSW,255,5.0,7.0,54,0.00,,,-99.99,,2013-02-03 16:41:00,
2013-02-03 10:52:00,33.0,18.0,-100.00,SW,230,5.0,6.0,53,0.00,,,-99.99,,2013-02-03 16:52:00,
2013-02-03 11:02:00,33.0,18.0,-100.00,SW,230,5.0,6.0,53,0.00,,,-99.99,,2013-02-03 17:02:00,
2013-02-03 11:11:00,34.0,18.0,-100.00,SW,225,3.0,7.0,52,0.00,,,-99.99,,2013-02-03 17:11:00,
2013-02-03 11:21:00,34.0,19.0,-100.00,SSW,200,3.0,5.0,52,0.00,,,-99.99,,2013-02-03 17:21:00,
2013-02-03 11:32:00,35.0,20.0,-100.00,SSW,195,5.0,7.0,54,0.00,,,-99.99,,2013-02-03 17:32:00,
2013-02-03 11:42:00,35.0,20.0,-100.00,SSW,195,5.0,7.0,54,0.00,,,-99.99,,2013-02-03 17:42:00,
2013-02-03 11:52:00,35.0,20.0,-100.00,SSW,195,7.0,9.0,53,0.00,,,-99.99,,2013-02-03 17:52:00,
2013-02-03 12:03:00,35.0,20.0,-100.00,SSW,195,7.0,9.0,53,0.00,,,-99.99,,2013-02-03 18:03:00,
2013-02-03 12:11:00,35.0,20.0,-100.00,SW,215,7.0,10.0,52,0.00,,,-99.99,,2013-02-03 18:11:00,
2013-02-03 12:23:00,36.0,20.0,-100.00,SSW,200,7.0,11.0,51,0.00,,,-99.99,,2013-02-03 18:23:00,
2013-02-03 12:32:00,37.0,21.0,-100.00,WSW,245,9.0,12.0,51,0.00,,,-99.99,,2013-02-03 18:32:00,
2013-02-03 12:42:00,37.0,21.0,-100.00,WSW,245,9.0,12.0,51,0.00,,,-99.99,,2013-02-03 18:42:00,
2013-02-03 12:51:00,37.0,21.0,-100.00,SSW,205,9.0,14.0,51,0.00,,,-99.99,,2013-02-03 18:51:00,
2013-02-03 13:02:00,38.0,21.0,-100.00,SSW,205,8.0,14.0,50,0.00,,,-99.99,,2013-02-03 19:02:00,
2013-02-03 13:11:00,38.0,22.0,-100.00,SW,235,9.0,13.0,50,0.00,,,-99.99,,2013-02-03 19:11:00,
2013-02-03 13:22:00,38.0,21.0,-100.00,SW,220,13.0,19.0,50,0.00,,,-99.99,,2013-02-03 19:22:00,
2013-02-03 13:32:00,39.0,22.0,-100.00,WSW,240,11.0,17.0,50,0.00,,,-99.99,,2013-02-03 19:32:00,
2013-02-03 13:41:00,39.0,22.0,-100.00,WSW,240,11.0,17.0,50,0.00,,,-99.99,,2013-02-03 19:41:00,
2013-02-03 13:51:00,39.0,22.0,-100.00,SSW,210,12.0,17.0,50,0.00,,,-99.99,,2013-02-03 19:51:00,
2013-02-03 14:01:00,39.0,22.0,-100.00,SSW,210,12.0,17.0,50,0.00,,,-99.99,,2013-02-03 20:01:00,
2013-02-03 14:12:00,40.0,23.0,-100.00,SW,225,11.0,18.0,50,0.00,,,-99.99,,2013-02-03 20:12:00,
2013-02-03 14:21:00,40.0,23.0,-100.00,SW,225,9.0,16.0,50,0.00,,,-99.99,,2013-02-03 20:21:00,
2013-02-03 14:32:00,41.0,22.0,-100.00,SW,225,12.0,19.0,47,0.00,,,-99.99,,2013-02-03 20:32:00,
2013-02-03 14:42:00,41.0,22.0,-100.00,SW,225,12.0,19.0,47,0.00,,,-99.99,,2013-02-03 20:42:00,
2013-02-03 14:52:00,41.0,23.0,-100.00,SW,220,13.0,17.0,47,0.00,,,-99.99,,2013-02-03 20:52:00,
2013-02-03 15:03:00,41.0,23.0,-100.00,SW,220,13.0,17.0,47,0.00,,,-99.99,,2013-02-03 21:03:00,
2013-02-03 15:11:00,41.0,24.0,-100.00,SSW,205,10.0,16.0,48,0.00,,,-99.99,,2013-02-03 21:11:00,
2013-02-03 15:21:00,42.0,23.0,-100.00,SSW,210,10.0,15.0,47,0.00,,,-99.99,,2013-02-03 21:21:00,
2013-02-03 15:32:00,42.0,24.0,-100.00,SW,225,10.0,12.0,48,0.00,,,-99.99,,2013-02-03 21:32:00,
2013-02-03 15:42:00,42.0,24.0,-100.00,SW,225,10.0,12.0,48,0.00,,,-99.99,,2013-02-03 21:42:00,
2013-02-03 15:51:00,43.0,25.0,-100.00,SSW,210,7.0,14.0,48,0.00,,,-99.99,,2013-02-03 21:51:00,
2013-02-03 16:01:00,43.0,25.0,-100.00,SSW,210,7.0,14.0,48,0.00,,,-99.99,,2013-02-03 22:01:00,
2013-02-03 16:11:00,43.0,25.0,-100.00,SSW,210,7.0,14.0,48,0.00,,,-99.99,,2013-02-03 22:11:00,
2013-02-03 16:21:00,43.0,25.0,-100.00,SSW,200,7.0,12.0,48,0.00,,,-99.99,,2013-02-03 22:21:00,
2013-02-03 16:32:00,42.0,25.0,-100.00,SSW,210,7.0,10.0,50,0.00,,,-99.99,,2013-02-03 22:32:00,
2013-02-03 16:41:00,42.0,25.0,-100.00,SSW,210,7.0,10.0,50,0.00,,,-99.99,,2013-02-03 22:41:00,
2013-02-03 16:52:00,42.0,26.0,-100.00,SSW,210,7.0,10.0,52,0.00,,,-99.99,,2013-02-03 22:52:00,
2013-02-03 17:01:00,42.0,26.0,-100.00,SSW,210,7.0,10.0,52,0.00,,,-99.99,,2013-02-03 23:01:00,
2013-02-03 17:12:00,41.0,26.0,-100.00,SSW,200,7.0,11.0,52,0.00,,,-99.99,,2013-02-03 23:12:00,
2013-02-03 17:22:00,41.0,26.0,-100.00,South,190,7.0,9.0,54,0.00,,,-99.99,,2013-02-03 23:22:00,
2013-02-03 17:32:00,40.0,26.0,-100.00,South,190,6.0,8.0,56,0.00,,,-99.99,,2013-02-03 23:32:00,
2013-02-03 17:42:00,40.0,26.0,-100.00,South,190,6.0,8.0,56,0.00,,,-99.99,,2013-02-03 23:42:00,
2013-02-03 17:52:00,39.0,26.0,-100.00,South,190,6.0,7.0,59,0.00,,,-99.99,,2013-02-03 23:52:00,
2013-02-03 18:01:00,39.0,26.0,-100.00,South,190,6.0,7.0,59,0.00,,,-99.99,,2013-02-04 00:01:00,
2013-02-03 18:11:00,38.0,26.0,-100.00,South,190,6.0,7.0,60,0.00,,,-99.99,,2013-02-04 00:11:00,
2013-02-03 18:22:00,38.0,26.0,-100.00,South,185,4.0,7.0,60,0.00,,,-99.99,,2013-02-04 00:22:00,
2013-02-03 18:32:00,37.0,26.0,-100.00,South,180,5.0,6.0,65,0.00,,,-99.99,,2013-02-04 00:32:00,
2013-02-03 18:41:00,37.0,26.0,-100.00,South,180,5.0,6.0,65,0.00,,,-99.99,,2013-02-04 00:41:00,
2013-02-03 18:51:00,36.0,27.0,-100.00,South,180,6.0,7.0,70,0.00,,,-99.99,,2013-02-04 00:51:00,
2013-02-03 19:01:00,36.0,27.0,-100.00,South,180,6.0,7.0,70,0.00,,,-99.99,,2013-02-04 01:01:00,
2013-02-03 19:11:00,36.0,27.0,-100.00,SSW,200,7.0,7.0,69,0.00,,,-99.99,,2013-02-04 01:11:00,
2013-02-03 19:21:00,37.0,27.0,-100.00,SSW,205,7.0,8.0,68,0.00,,,-99.99,,2013-02-04 01:21:00,
2013-02-03 19:31:00,37.0,27.0,-100.00,SSW,195,6.0,7.0,65,0.00,,,-99.99,,2013-02-04 01:31:00,
2013-02-03 19:41:00,37.0,27.0,-100.00,SSW,195,6.0,7.0,65,0.00,,,-99.99,,2013-02-04 01:41:00,
2013-02-03 19:52:00,36.0,27.0,-100.00,SSW,200,6.0,7.0,67,0.00,,,-99.99,,2013-02-04 01:52:00,
2013-02-03 20:02:00,36.0,27.0,-100.00,SSW,200,6.0,7.0,67,0.00,,,-99.99,,2013-02-04 02:02:00,
2013-02-03 20:11:00,37.0,27.0,-100.00,SSW,200,9.0,11.0,66,0.00,,,-99.99,,2013-02-04 02:11:00,
2013-02-03 20:21:00,37.0,27.0,-100.00,South,190,7.0,10.0,66,0.00,,,-99.99,,2013-02-04 02:21:00,
2013-02-03 20:31:00,36.0,27.0,-100.00,South,185,6.0,7.0,68,0.00,,,-99.99,,2013-02-04 02:31:00,
2013-02-03 20:41:00,36.0,27.0,-100.00,South,185,6.0,7.0,68,0.00,,,-99.99,,2013-02-04 02:41:00,
2013-02-03 20:52:00,35.0,26.0,-100.00,SSE,160,6.0,7.0,70,0.00,,,-99.99,,2013-02-04 02:52:00,
2013-02-03 21:02:00,35.0,26.0,-100.00,SSE,160,6.0,7.0,70,0.00,,,-99.99,,2013-02-04 03:02:00,
2013-02-03 21:11:00,34.0,27.0,-100.00,ESE,115,5.0,7.0,74,0.00,,,-99.99,,2013-02-04 03:11:00,
2013-02-03 21:21:00,34.0,27.0,-100.00,SE,130,4.0,6.0,76,0.00,,,-99.99,,2013-02-04 03:21:00,
2013-02-03 21:32:00,34.0,27.0,-100.00,South,170,7.0,9.0,76,0.00,,,-99.99,,2013-02-04 03:32:00,
2013-02-03 21:41:00,34.0,27.0,-100.00,South,170,7.0,9.0,76,0.00,,,-99.99,,2013-02-04 03:41:00,
2013-02-03 21:51:00,33.0,28.0,-100.00,South,190,7.0,11.0,80,0.00,,,-99.99,,2013-02-04 03:51:00,
2013-02-03 22:01:00,33.0,28.0,-100.00,South,190,7.0,11.0,80,0.00,,,-99.99,,2013-02-04 04:01:00,
2013-02-03 22:11:00,33.0,28.0,-100.00,South,185,9.0,10.0,80,0.00,,,-99.99,,2013-02-04 04:11:00,
2013-02-03 22:21:00,33.0,28.0,-100.00,South,185,8.0,10.0,81,0.00,,,-99.99,,2013-02-04 04:21:00,
2013-02-03 22:32:00,34.0,28.0,-100.00,SSE,150,6.0,8.0,80,0.00,,,-99.99,,2013-02-04 04:32:00,
2013-02-03 22:41:00,34.0,28.0,-100.00,SSE,150,6.0,8.0,80,0.00,,,-99.99,,2013-02-04 04:41:00,
2013-02-03 22:52:00,34.0,28.0,-100.00,SSE,150,6.0,8.0,80,0.00,,,-99.99,,2013-02-04 04:52:00,
2013-02-03 23:03:00,34.0,28.0,-100.00,SSE,150,6.0,8.0,80,0.00,,,-99.99,,2013-02-04 05:03:00,
2013-02-03 23:11:00,34.0,28.0,-100.00,SSE,150,6.0,8.0,80,0.00,,,-99.99,,2013-02-04 05:11:00,
2013-02-03 23:22:00,35.0,28.0,-100.00,South,185,9.0,11.0,77,0.00,,,-99.99,,2013-02-04 05:22:00,
2013-02-03 23:33:00,35.0,28.0,-100.00,South,175,9.0,11.0,76,0.00,,,-99.99,,2013-02-04 05:33:00,
2013-02-03 23:42:00,35.0,28.0,-100.00,South,175,9.0,11.0,76,0.00,,,-99.99,,2013-02-04 05:42:00,
2013-02-03 23:52:00,34.0,28.0,-100.00,South,185,7.0,10.0,78,0.00,,,-99.99,,2013-02-04 05:52:00,